Location: Glenbow
(51.1592°N, 114.3828°W)
Time: 12:57:51
(UTC+00:00)

Envisat - Pass Details

Date: 01 December 2021
Orbit: 764 x 766 km, 98.2° (Epoch: 28 January)

Event Time Altitude Azimuth Distance (km) Brightness Sun altitude
Rises 14:01:54 0° 7° (N) 3,248 6.1 -11.6°
Reaches altitude 10° 14:04:29 10° 356° (N) 2,317 5.2 -11.2°
Maximum altitude 14:08:46 28° 299° (WNW) 1,415 3.8 -10.6°
Drops below altitude 10° 14:13:02 10° 242° (WSW) 2,304 5.1 -10.0°
Sets 14:15:36 0° 231° (SW) 3,225 6.0 -9.6°
